Miscellaneous Local Product
Issued by NWS Hastings, NE

Home | Current Version | Previous Version | Graphics & Text | Print | Product List | Glossary On
Versions: 1 2 3 4 5 6 7 8 9 10 11 12 13 14 15 16 17 18 19 20 21 22 23 24 25 26 27 28 29 30 31 32 33 34 35 36 37 38 39 40 41 42 43 44 45 46 47 48 49 50
004
AXUS43 KGID 241302
MISGRI

GID CWA HOURLY WEATHER ROUNDUP
NATIONAL WEATHER SERVICE HASTINGS NE
800 AM CDT SAT JUN 24 2017

NOTE: "FAIR" INDICATES FEW OR NO CLOUDS BELOW 12,000 FEET WITH NO
SIGNIFICANT WEATHER AND/OR OBSTRUCTIONS TO VISIBILITY.

...SOUTH CENTRAL NEBRASKA...

CITY           SKY/WX    TMP DP  RH WIND       PRES   REMARKS
GRAND ISLAND   MOSUNNY   59  46  62 W6        30.23S
HASTINGS       SUNNY     56  45  66 W3        30.25R
KEARNEY        CLOUDY    55  39  54 W5        30.25R
ORD            PTSUNNY   53  41  63 N3        30.22S
YORK           SUNNY     54  45  71 NW6       30.22R
AURORA         SUNNY     57  48  73 CALM      30.22S
LEXINGTON      CLOUDY    54  47  77 W6        30.26R
HOLDREGE       CLOUDY    55  47  73 CALM      30.25R
HEBRON         SUNNY     58  50  74 CALM      30.23R

...NEBRASKA PANHANDLE...

CITY           SKY/WX    TMP DP  RH WIND       PRES   REMARKS
CHADRON        CLOUDY    51  41  68 CALM      30.28R
ALLIANCE       CLOUDY    52  44  74 W5        30.28S
SCOTTSBLUFF    CLOUDY    57  41  55 CALM      30.30S
SIDNEY         CLOUDY    55  39  54 E3        30.33R

...WESTERN AND NORTH CENTRAL NEBRASKA...

CITY           SKY/WX    TMP DP  RH WIND       PRES   REMARKS
VALENTINE      SUNNY     52  33  48 W6        30.24R
AINSWORTH      SUNNY     55  42  61 W7        30.23R
ONEILL         SUNNY     54  41  62 W6        30.21R
BROKEN BOW     CLOUDY    56  42  59 SW3       30.24S
IMPERIAL       CLOUDY    56  46  69 CALM      30.29R
NORTH PLATTE   CLOUDY    55  46  71 W3        30.27R
MCCOOK         CLOUDY    52  48  86 CALM      30.26S

...EASTERN NEBRASKA...

CITY           SKY/WX    TMP DP  RH WIND       PRES   REMARKS
NORFOLK        SUNNY     57  41  55 W7        30.17F
SO SIOUX CITY  MOSUNNY   56  43  61 W5        30.16R
TEKAMAH        MOSUNNY   58  43  57 W5        30.16S
COLUMBUS       SUNNY     55  44  66 W3        30.21R
ALBION         SUNNY     51  42  70 CALM      30.21S
OMAHA EPPLEY   MOSUNNY   60  46  59 CALM      30.17R
OFFUTT AFB     SUNNY     58  47  67 NW9       30.17R
MILLARD        MOSUNNY   61  48  63 CALM      30.18S
LINCOLN        SUNNY     57  48  72 N7        30.20S
NEBRASKA CITY  SUNNY     60  49  66 NW5       30.18R
BEATRICE       SUNNY     57  49  75 W5        30.21R
FALLS CITY     SUNNY     59  51  75 NW7       30.18R

...NORTHERN KANSAS...

CITY           SKY/WX    TMP DP  RH WIND       PRES   REMARKS
GOODLAND       CLOUDY    56  50  80 S6        30.27R
HILL CITY      SUNNY     59  50  72 CALM      30.26R
NORTON         SUNNY     57  43  58 NE5       30.24
PHILLIPSBURG   SUNNY     57  48  72 CALM      30.25S
SMITH CENTER   SUNNY     63  45  51 NE5       30.25R
HAYS           SUNNY     63  52  67 NE6       30.25R
RUSSELL        SUNNY     61  51  70 NE8       30.23R
CONCORDIA      SUNNY     63  44  50 CALM      30.22R
SALINA         SUNNY     64  52  64 N6        30.22R
TOPEKA         SUNNY     64  52  64 CALM      30.20R



USA.gov is the U.S. government's official web portal to all federal, state and local government web resources and services.